Regional Weather Roundup
Issued by NWS Cleveland, OH

Home | Current Version | Previous Version | Text Only | Print | Product List | Glossary Off
Versions: 1 2 3 4 5 6 7 8 9 10 11 12 13 14 15 16 17 18 19 20 21 22 23 24 25 26 27 28 29 30 31 32 33 34 35 36 37 38 39 40 41 42 43 44 45 46 47 48 49 50

000
ASUS41 KCLE 260002
RWRCLE
OHIO REGIONAL WEATHER ROUNDUP
NATIONAL WEATHER SERVICE CLEVELAND, OH
800 PM EDT SUN JUN 25 2017

NOTE: "FAIR" INDICATES FEW OR NO CLOUDS BELOW 12,000 FEET WITH NO
SIGNIFICANT WEATHER AND/OR OBSTRUCTIONS TO VISIBILITY.

OHZ001>008-015>018-024>027-034-035-043-044-260100-
   NORTHWEST OHIO

CITY           SKY/WX    TMP DP  RH WIND       PRES   REMARKS
DEFIANCE       CLOUDY    67  44  43 VRB6      30.06S
FINDLAY        MOSUNNY   69  44  40 W12       30.06R
TOLEDO EXPRESS SUNNY     68  42  38 W10G21    30.04R
TOLEDO EXEC    MOSUNNY   71  44  37 W12       30.05R
LIMA           MOSUNNY   69  44  40 W15       30.08R
$$

OHZ009>014-019>023-028>033-038-089-260100-
   NORTHEAST OHIO

CITY           SKY/WX    TMP DP  RH WIND       PRES   REMARKS
CLE-HOPKINS    MOCLDY    70  46  42 W8        30.05S
CLE-LAKEFRONT  PTCLDY    69  52  54 W13       30.02S
CUY CO. ARPT   PTCLDY    70  52  52 W12       30.05R
LORAIN-ELYRIA  MOSUNNY   69  42  37 W10       30.05R
ASHTABULA      PTCLDY    67  47  48 W10       30.05S
AKRON-CANTON   PTCLDY    70  43  37 W9        30.06R
WOOSTER        CLEAR     66  45  46 W9        30.07S
MANSFIELD      MOSUNNY   68  43  40 W12       30.07S
YOUNGSTOWN     PTCLDY    68  45  43 W8        30.05R
$$

OHZ042-051>053-060>062-070>072-077>081-260100-
  SOUTHWEST OHIO

CITY           SKY/WX    TMP DP  RH WIND       PRES   REMARKS
CINC-COVINGTON MOSUNNY   73  48  41 NW12      30.10R
CINC-LUNKEN    MOSUNNY   75  49  39 NW8       30.10R
HAMILTON       SUNNY     74  48  39 W8        30.11R
DAYTON         MOSUNNY   70  46  42 W12       30.11R
WRIGHT-PAT AFB MOSUNNY   72  45  38 W10       30.09R
DAYTON GENERAL SUNNY     72  45  37 NW10      30.10R
WILMINGTON     SUNNY     71  48  43 W9        30.10R
$$

OHZ036-037-039>041-045>050-054>059-063>069-073>076-082>088-260100-
  CENTRAL AND SOUTHEAST OHIO

CITY           SKY/WX    TMP DP  RH WIND       PRES   REMARKS
COLUMBUS       MOSUNNY   71  46  40 W13       30.08R
OSU AIRPORT    MOSUNNY   70  46  42 W13       30.08S
BOLTON FIELD   NOT AVBL
RICKENBACK AFB SUNNY     71  45  39 NW15      30.08R
NEWARK         CLEAR     71  42  35 W13       30.08R
MARION         MOSUNNY   69  43  38 W13       30.08S
LANCASTER      CLEAR     71  46  40 NW13      30.09R
ZANESVILLE     CLEAR     71  45  39 NW10      30.08R
NEW PHILLY     NOT AVBL
$$



USA.gov is the U.S. government's official web portal to all federal, state and local government web resources and services.